Time,TemperatureF,DewpointF,PressureIn,WindDirection,WindDirectionDegrees,WindSpeedMPH,WindSpeedGustMPH,Humidity,HourlyPrecipIn,Conditions,Clouds,dailyrainin,SoftwareType,DateUTC
2013-03-13 00:13:00,55.7,23.0,30.11,ENE,77,24.0,39.0,28,0.00,,,0.00,weatherlink.com 1.10,2013-03-13 06:13:00,
2013-03-13 00:27:00,55.6,23.0,30.10,ESE,123,29.0,31.0,28,0.00,,,0.00,weatherlink.com 1.10,2013-03-13 06:27:00,
2013-03-13 00:42:00,55.4,23.0,30.10,ESE,108,21.0,32.0,29,0.00,,,0.00,weatherlink.com 1.10,2013-03-13 06:42:00,
2013-03-13 00:57:00,55.4,23.0,30.10,ESE,115,26.0,39.0,29,0.00,,,0.00,weatherlink.com 1.10,2013-03-13 06:57:00,
2013-03-13 01:13:00,55.0,23.0,30.10,ESE,110,31.0,38.0,29,0.00,,,0.00,weatherlink.com 1.10,2013-03-13 07:13:00,
2013-03-13 01:28:00,55.0,23.0,30.10,East,96,23.0,39.0,29,0.00,,,0.00,weatherlink.com 1.10,2013-03-13 07:28:00,
2013-03-13 01:43:00,55.3,23.0,30.10,East,84,34.0,40.0,29,0.00,,,0.00,weatherlink.com 1.10,2013-03-13 07:43:00,
2013-03-13 01:58:00,55.1,23.0,30.10,East,97,30.0,40.0,29,0.00,,,0.00,weatherlink.com 1.10,2013-03-13 07:58:00,
2013-03-13 02:13:00,55.0,23.0,30.11,East,80,31.0,39.0,29,0.00,,,0.00,weatherlink.com 1.10,2013-03-13 08:13:00,
2013-03-13 02:28:00,55.1,23.0,30.10,East,80,31.0,40.0,29,0.00,,,0.00,weatherlink.com 1.10,2013-03-13 08:28:00,
2013-03-13 02:43:00,55.0,23.0,30.10,ESE,106,21.0,39.0,29,0.00,,,0.00,weatherlink.com 1.10,2013-03-13 08:43:00,
2013-03-13 02:58:00,54.7,23.0,30.10,East,79,28.0,39.0,29,0.00,,,0.00,weatherlink.com 1.10,2013-03-13 08:58:00,
2013-03-13 03:13:00,54.6,23.0,30.10,ESE,118,18.0,36.0,29,0.00,,,0.00,weatherlink.com 1.10,2013-03-13 09:13:00,
2013-03-13 03:28:00,54.5,23.0,30.09,ENE,77,27.0,36.0,29,0.00,,,0.00,weatherlink.com 1.10,2013-03-13 09:28:00,
2013-03-13 03:43:00,54.3,22.0,30.09,East,91,28.0,37.0,29,0.00,,,0.00,weatherlink.com 1.10,2013-03-13 09:43:00,
2013-03-13 03:58:00,54.1,22.0,30.09,East,97,25.0,35.0,29,0.00,,,0.00,weatherlink.com 1.10,2013-03-13 09:58:00,
2013-03-13 04:13:00,53.9,22.0,30.09,ESE,105,30.0,35.0,29,0.00,,,0.00,weatherlink.com 1.10,2013-03-13 10:13:00,
2013-03-13 04:28:00,53.6,22.0,30.09,East,80,33.0,34.0,29,0.00,,,0.00,weatherlink.com 1.10,2013-03-13 10:28:00,
2013-03-13 04:43:00,53.4,23.0,30.10,ESE,120,20.0,34.0,30,0.00,,,0.00,weatherlink.com 1.10,2013-03-13 10:43:00,
2013-03-13 04:58:00,53.4,23.0,30.10,East,86,27.0,32.0,30,0.00,,,0.00,weatherlink.com 1.10,2013-03-13 10:58:00,
2013-03-13 05:13:00,53.3,22.0,30.10,East,83,26.0,34.0,30,0.00,,,0.00,weatherlink.com 1.10,2013-03-13 11:13:00,
2013-03-13 05:28:00,53.2,22.0,30.11,ESE,117,17.0,36.0,30,0.00,,,0.00,weatherlink.com 1.10,2013-03-13 11:28:00,
2013-03-13 05:43:00,53.3,22.0,30.11,East,85,22.0,35.0,30,0.00,,,0.00,weatherlink.com 1.10,2013-03-13 11:43:00,
2013-03-13 05:58:00,53.0,22.0,30.12,ESE,121,19.0,25.0,30,0.00,,,0.00,weatherlink.com 1.10,2013-03-13 11:58:00,
2013-03-13 06:13:00,52.8,22.0,30.13,ESE,115,12.0,23.0,30,0.00,,,0.00,weatherlink.com 1.10,2013-03-13 12:13:00,
2013-03-13 06:28:00,52.4,22.0,30.13,ESE,104,16.0,20.0,30,0.00,,,0.00,weatherlink.com 1.10,2013-03-13 12:28:00,
2013-03-13 06:43:00,52.4,22.0,30.14,ESE,103,12.0,21.0,30,0.00,,,0.00,weatherlink.com 1.10,2013-03-13 12:43:00,
2013-03-13 06:58:00,52.3,22.0,30.14,ESE,118,19.0,23.0,30,0.00,,,0.00,weatherlink.com 1.10,2013-03-13 12:58:00,
2013-03-13 07:13:00,52.2,21.0,30.15,ESE,109,10.0,23.0,30,0.00,,,0.00,weatherlink.com 1.10,2013-03-13 13:13:00,
2013-03-13 07:28:00,52.5,22.0,30.15,ESE,107,19.0,22.0,31,0.00,,,0.00,weatherlink.com 1.10,2013-03-13 13:28:00,
2013-03-13 07:43:00,52.9,22.0,30.16,East,81,11.0,24.0,30,0.00,,,0.00,weatherlink.com 1.10,2013-03-13 13:43:00,
2013-03-13 07:58:00,53.0,21.0,30.16,East,85,14.0,25.0,29,0.00,,,0.00,weatherlink.com 1.10,2013-03-13 13:58:00,
2013-03-13 08:13:00,52.8,21.0,30.16,SE,125,16.0,27.0,29,0.00,,,0.00,weatherlink.com 1.10,2013-03-13 14:13:00,
2013-03-13 08:28:00,53.3,22.0,30.17,East,80,16.0,25.0,29,0.00,,,0.00,weatherlink.com 1.10,2013-03-13 14:28:00,
2013-03-13 08:43:00,53.9,21.0,30.17,East,81,17.0,22.0,28,0.00,,,0.00,weatherlink.com 1.10,2013-03-13 14:43:00,
2013-03-13 08:58:00,54.3,22.0,30.18,ESE,105,19.0,25.0,28,0.00,,,0.00,weatherlink.com 1.10,2013-03-13 14:58:00,
2013-03-13 09:13:00,54.6,22.0,30.18,East,91,18.0,28.0,28,0.00,,,0.00,weatherlink.com 1.10,2013-03-13 15:13:00,
2013-03-13 09:28:00,55.1,21.0,30.18,ESE,105,14.0,24.0,27,0.00,,,0.00,weatherlink.com 1.10,2013-03-13 15:28:00,
2013-03-13 09:43:00,55.5,22.0,30.18,ENE,78,17.0,27.0,27,0.00,,,0.00,weatherlink.com 1.10,2013-03-13 15:43:00,
2013-03-13 09:58:00,55.8,21.0,30.18,ESE,110,19.0,27.0,26,0.00,,,0.00,weatherlink.com 1.10,2013-03-13 15:58:00,
2013-03-13 10:13:00,56.5,22.0,30.19,ESE,112,7.0,22.0,26,0.00,,,0.00,weatherlink.com 1.10,2013-03-13 16:13:00,
2013-03-13 10:28:00,56.8,21.0,30.20,East,96,8.0,24.0,25,0.00,,,0.00,weatherlink.com 1.10,2013-03-13 16:28:00,
2013-03-13 10:43:00,57.3,22.0,30.20,East,86,9.0,23.0,25,0.00,,,0.00,weatherlink.com 1.10,2013-03-13 16:43:00,
2013-03-13 10:59:00,57.8,22.0,30.20,SSE,149,6.0,24.0,25,0.00,,,0.00,weatherlink.com 1.10,2013-03-13 16:59:00,
2013-03-13 11:14:00,58.5,22.0,30.20,East,98,21.0,22.0,24,0.00,,,0.00,weatherlink.com 1.10,2013-03-13 17:14:00,
2013-03-13 11:29:00,58.9,22.0,30.20,ESE,117,4.0,23.0,24,0.00,,,0.00,weatherlink.com 1.10,2013-03-13 17:29:00,
2013-03-13 11:44:00,59.7,22.0,30.19,East,85,13.0,20.0,23,0.00,,,0.00,weatherlink.com 1.10,2013-03-13 17:44:00,
2013-03-13 11:59:00,60.2,22.0,30.18,SE,130,10.0,20.0,23,0.00,,,0.00,weatherlink.com 1.10,2013-03-13 17:59:00,
2013-03-13 12:14:00,61.4,22.0,30.18,East,98,11.0,22.0,22,0.00,,,0.00,weatherlink.com 1.10,2013-03-13 18:14:00,
2013-03-13 12:29:00,62.2,22.0,30.17,ESE,119,4.0,20.0,21,0.00,,,0.00,weatherlink.com 1.10,2013-03-13 18:29:00,
2013-03-13 12:44:00,63.4,22.0,30.16,East,100,14.0,19.0,20,0.00,,,0.00,weatherlink.com 1.10,2013-03-13 18:44:00,
2013-03-13 12:59:00,63.8,22.0,30.16,SE,132,7.0,19.0,20,0.00,,,0.00,weatherlink.com 1.10,2013-03-13 18:59:00,
2013-03-13 13:14:00,64.5,21.0,30.15,ESE,123,15.0,16.0,19,0.00,,,0.00,weatherlink.com 1.10,2013-03-13 19:14:00,
2013-03-13 13:29:00,65.6,21.0,30.14,ESE,104,13.0,16.0,18,0.00,,,0.00,weatherlink.com 1.10,2013-03-13 19:29:00,
2013-03-13 13:44:00,66.1,21.0,30.13,SE,127,3.0,20.0,18,0.00,,,0.00,weatherlink.com 1.10,2013-03-13 19:44:00,
2013-03-13 13:59:00,66.5,20.0,30.12,ESE,107,10.0,15.0,17,0.00,,,0.00,weatherlink.com 1.10,2013-03-13 19:59:00,
2013-03-13 14:14:00,67.3,18.0,30.11,ESE,103,8.0,15.0,15,0.00,,,0.00,weatherlink.com 1.10,2013-03-13 20:14:00,
2013-03-13 14:29:00,67.3,18.0,30.11,ESE,103,2.0,16.0,15,0.00,,,0.00,weatherlink.com 1.10,2013-03-13 20:29:00,
2013-03-13 14:44:00,69.0,18.0,30.10,East,94,12.0,15.0,14,0.00,,,0.00,weatherlink.com 1.10,2013-03-13 20:44:00,
2013-03-13 14:59:00,68.5,16.0,30.09,ESE,110,10.0,16.0,13,0.00,,,0.00,weatherlink.com 1.10,2013-03-13 20:59:00,
2013-03-13 15:14:00,69.6,18.0,30.09,ENE,59,0.0,13.0,14,0.00,,,0.00,weatherlink.com 1.10,2013-03-13 21:14:00,
2013-03-13 15:29:00,70.8,17.0,30.09,ESE,105,5.0,11.0,13,0.00,,,0.00,weatherlink.com 1.10,2013-03-13 21:29:00,
2013-03-13 15:44:00,72.5,15.0,30.09,SSE,153,4.0,12.0,11,0.00,,,0.00,weatherlink.com 1.10,2013-03-13 21:44:00,
2013-03-13 15:59:00,71.3,12.0,30.08,ESE,121,4.0,10.0,10,0.00,,,0.00,weatherlink.com 1.10,2013-03-13 21:59:00,
2013-03-13 16:14:00,71.2,12.0,30.07,East,99,2.0,14.0,10,0.00,,,0.00,weatherlink.com 1.10,2013-03-13 22:14:00,
2013-03-13 16:29:00,71.5,12.0,30.06,East,90,13.0,14.0,10,0.00,,,0.00,weatherlink.com 1.10,2013-03-13 22:29:00,
2013-03-13 16:59:00,71.4,9.0,30.05,ESE,112,8.0,14.0,9,0.00,,,0.00,weatherlink.com 1.10,2013-03-13 22:59:00,
2013-03-13 17:14:00,73.6,9.0,30.05,SSE,165,6.0,9.0,8,0.00,,,0.00,weatherlink.com 1.10,2013-03-13 23:14:00,
2013-03-13 17:30:00,74.0,6.0,30.04,South,190,4.0,7.0,7,0.00,,,0.00,weatherlink.com 1.10,2013-03-13 23:30:00,
2013-03-13 17:45:00,73.9,6.0,30.04,SE,131,5.0,9.0,7,0.00,,,0.00,weatherlink.com 1.10,2013-03-13 23:45:00,
2013-03-13 18:00:00,73.2,8.0,30.04,SE,145,3.0,9.0,8,0.00,,,0.00,weatherlink.com 1.10,2013-03-14 00:00:00,
2013-03-13 18:15:00,73.3,8.0,30.04,SSE,158,4.0,6.0,8,0.00,,,0.00,weatherlink.com 1.10,2013-03-14 00:15:00,
2013-03-13 18:30:00,72.8,8.0,30.04,ESE,106,2.0,6.0,8,0.00,,,0.00,weatherlink.com 1.10,2013-03-14 00:30:00,
2013-03-13 18:45:00,71.9,7.0,30.04,East,84,5.0,9.0,8,0.00,,,0.00,weatherlink.com 1.10,2013-03-14 00:45:00,
2013-03-13 19:00:00,71.0,9.0,30.04,East,98,4.0,8.0,9,0.00,,,0.00,weatherlink.com 1.10,2013-03-14 01:00:00,
2013-03-13 19:15:00,69.9,8.0,30.04,ESE,121,6.0,8.0,9,0.00,,,0.00,weatherlink.com 1.10,2013-03-14 01:15:00,
2013-03-13 19:30:00,69.0,10.0,30.04,East,89,5.0,7.0,10,0.00,,,0.00,weatherlink.com 1.10,2013-03-14 01:30:00,
2013-03-13 19:45:00,69.3,8.0,30.04,East,86,5.0,10.0,9,0.00,,,0.00,weatherlink.com 1.10,2013-03-14 01:45:00,
2013-03-13 20:00:00,69.4,8.0,30.05,ENE,65,8.0,8.0,9,0.00,,,0.00,weatherlink.com 1.10,2013-03-14 02:00:00,
2013-03-13 20:15:00,69.3,8.0,30.05,East,84,6.0,9.0,9,0.00,,,0.00,weatherlink.com 1.10,2013-03-14 02:15:00,
2013-03-13 20:30:00,69.2,8.0,30.05,East,83,7.0,11.0,9,0.00,,,0.00,weatherlink.com 1.10,2013-03-14 02:30:00,
2013-03-13 20:45:00,68.7,7.0,30.05,East,79,11.0,11.0,9,0.00,,,0.00,weatherlink.com 1.10,2013-03-14 02:45:00,
2013-03-13 21:00:00,68.9,8.0,30.05,ESE,103,11.0,12.0,9,0.00,,,0.00,weatherlink.com 1.10,2013-03-14 03:00:00,
2013-03-13 21:15:00,68.5,7.0,30.05,ENE,78,13.0,13.0,9,0.00,,,0.00,weatherlink.com 1.10,2013-03-14 03:15:00,
2013-03-13 21:29:00,68.6,10.0,30.06,ENE,77,12.0,16.0,10,0.00,,,0.00,weatherlink.com 1.10,2013-03-14 03:29:00,
2013-03-13 21:45:00,68.7,10.0,30.06,ENE,77,11.0,15.0,10,0.00,,,0.00,weatherlink.com 1.10,2013-03-14 03:45:00,
2013-03-13 22:00:00,68.7,12.0,30.06,East,79,7.0,16.0,11,0.00,,,0.00,weatherlink.com 1.10,2013-03-14 04:00:00,
2013-03-13 22:16:00,68.5,12.0,30.07,East,86,13.0,15.0,11,0.00,,,0.00,weatherlink.com 1.10,2013-03-14 04:16:00,
2013-03-13 22:30:00,68.5,12.0,30.07,ESE,115,11.0,17.0,11,0.00,,,0.00,weatherlink.com 1.10,2013-03-14 04:30:00,
2013-03-13 22:45:00,68.4,12.0,30.07,ESE,109,11.0,20.0,11,0.00,,,0.00,weatherlink.com 1.10,2013-03-14 04:45:00,
2013-03-13 23:00:00,68.2,12.0,30.07,ENE,75,14.0,19.0,11,0.00,,,0.00,weatherlink.com 1.10,2013-03-14 05:00:00,
2013-03-13 23:15:00,67.7,11.0,30.08,SE,136,11.0,19.0,11,0.00,,,0.00,weatherlink.com 1.10,2013-03-14 05:15:00,
2013-03-13 23:30:00,67.2,11.0,30.07,ESE,115,14.0,20.0,11,0.00,,,0.00,weatherlink.com 1.10,2013-03-14 05:30:00,
2013-03-13 23:45:00,66.8,10.0,30.07,ENE,61,15.0,22.0,11,0.00,,,0.00,weatherlink.com 1.10,2013-03-14 05:45:00,